Location: Bothwell
(42.3833°S, 147.0000°E)
Time: 19:59:15
(UTC+11:00)

AO-85 - Pass Details

Date: 03 October 2022
Orbit: 513 x 757 km, 64.8° (Epoch: 24 November)

Event Time Altitude Azimuth Distance (km) Brightness Sun altitude
Rises 20:02:11 0° 356° (N) 2,685 ? -8.4°
Reaches altitude 10° 20:04:31 10° 8° (N) 1,832 ? -8.9°
Maximum altitude 20:08:03 28° 67° (ENE) 1,104 ? -9.5°
Drops below altitude 10° 20:11:49 10° 126° (SE) 1,968 ? -10.2°
Sets 20:14:25 0° 137° (SE) 2,928 ? -10.6°
